Weather History for PHHI - October, 2012

Change the Weather History Date:

Thursday, October 25, 2012

  Actual Average Record
Temperature  
Mean Temperature 76 °F -  
Max Temperature 82 °F 79 °F 82 °F (1996)
Min Temperature 69 °F 67 °F 64 °F (1996)
Cooling Degree Days 10    
Growing Degree Days 26 (Base 50)    
Moisture  
Dew Point 71 °F    
Average Humidity 86    
Maximum Humidity 95    
Minimum Humidity 66    
Precipitation  
Precipitation 0.47 in - - ()
Sea Level Pressure  
Sea Level Pressure 29.92 in    
Wind  
Wind Speed 3 mph (SSE)    
Max Wind Speed 13 mph    
Max Gust Speed -    
Visibility 9 miles    
Events Rain    
Averages and records for this station are not official NWS values.
T = Trace of Precipitation, MM = Missing Value Source: NWS Daily Summary

Daily Weather History Graph

Daily Weather History Graph

Search for Another Location

Airport or City:

Trip Planner

Search our weather history database for the weather conditions in past years. The results will help you decide how hot, cold, wet, or windy it might be!

Date:

Astronomy

Oct. 25, 2012 Rise Set
Actual Time 6:32 AM HST 5:59 PM HST
Civil Twilight 6:09 AM HST 6:22 PM HST
Nautical Twilight 5:43 AM HST 6:48 PM HST
Astronomical Twilight 5:17 AM HST 7:14 PM HST
Moon 3:30 PM HST (10/25) 3:05 AM HST (10/25)
Length of Visible Light 12h 12m
Length of Day
11h 27m
Waxing Gibbous, 86% of the Moon is Illuminated
Oct 25
Waxing Gibbous
Oct 29
Full
Nov 6
Last Quarter
Nov 13
New
Nov 20
First Quarter

Hourly Weather History & Observations

Time (HST) Temp. Heat Index Dew Point Humidity Pressure Visibility Wind Dir Wind Speed Gust Speed Precip Events Conditions
12:01 AM 71.6 °F - 69.8 °F 94% 29.90 in 10.0 mi West 3.5 mph - N/A   Overcast
12:28 AM 71.6 °F - 69.8 °F 94% 29.90 in 10.0 mi NNW 3.5 mph - N/A   Overcast
12:55 AM 72.7 °F - 70.0 °F 91% 29.90 in 10.0 mi Calm Calm - N/A   Mostly Cloudy
1:08 AM 71.6 °F - 69.8 °F 94% 29.90 in 10.0 mi Calm Calm - N/A   Light Drizzle
1:21 AM 71.6 °F - 69.8 °F 94% 29.88 in 10.0 mi North 4.6 mph - N/A   Mostly Cloudy
1:55 AM 71.8 °F - 69.3 °F 92% 29.89 in 10.0 mi Calm Calm - 0.00 in   Mostly Cloudy
2:55 AM 71.4 °F - 69.3 °F 93% 29.88 in 10.0 mi NNW 3.5 mph - N/A   Overcast
3:55 AM 71.6 °F - 68.7 °F 91% 29.88 in 10.0 mi Calm Calm - N/A   Mostly Cloudy
4:55 AM 70.3 °F - 67.8 °F 92% 29.88 in 10.0 mi Calm Calm - N/A   Overcast
5:55 AM 70.9 °F - 67.8 °F 90% 29.89 in 10.0 mi NE 3.5 mph - N/A   Overcast
6:55 AM 69.1 °F - 66.9 °F 93% 29.91 in 10.0 mi Calm Calm - N/A   Partly Cloudy
7:27 AM 69.8 °F - 68.0 °F 94% 29.91 in 10.0 mi Calm Calm - N/A   Partly Cloudy
7:55 AM 73.8 °F - 69.6 °F 87% 29.92 in 10.0 mi Calm Calm - N/A   Partly Cloudy
8:55 AM 77.5 °F - 68.7 °F 74% 29.92 in 10.0 mi South 3.5 mph - N/A   Clear
9:55 AM 80.2 °F 83.2 °F 69.4 °F 69% 29.93 in 10.0 mi Variable 4.6 mph - N/A   Scattered Clouds
10:16 AM 80.6 °F 83.9 °F 69.8 °F 70% 29.93 in 10.0 mi ENE 6.9 mph - N/A   Mostly Cloudy
10:23 AM 80.6 °F 83.9 °F 69.8 °F 70% 29.93 in 10.0 mi SE 4.6 mph - N/A   Mostly Cloudy
10:55 AM 81.9 °F 85.4 °F 69.6 °F 66% 29.92 in 10.0 mi SE 5.8 mph - N/A   Mostly Cloudy
11:30 AM 82.4 °F 86.3 °F 69.8 °F 66% 29.91 in 10.0 mi Variable 4.6 mph - N/A   Mostly Cloudy
11:55 AM 79.9 °F - 69.6 °F 71% 29.91 in 10.0 mi NNW 12.7 mph - N/A   Overcast
12:03 PM 78.8 °F - 69.8 °F 74% 29.91 in 10.0 mi NNW 10.4 mph - N/A   Overcast
12:23 PM 78.8 °F - 69.8 °F 74% 29.90 in 10.0 mi NW 10.4 mph - N/A   Light Drizzle
12:41 PM 77.0 °F - 69.8 °F 78% 29.89 in 2.5 mi WNW 9.2 mph - N/A Rain Rain
12:42 PM 77.0 °F - 69.8 °F 78% 29.89 in 1.5 mi WNW 9.2 mph - N/A Rain Rain
12:44 PM 77.0 °F - 69.8 °F 78% 29.89 in 1.0 mi WNW 5.8 mph - N/A Rain Heavy Rain
12:46 PM 77.0 °F - 69.8 °F 78% 29.89 in 0.8 mi WNW 4.6 mph - N/A Rain Heavy Rain
12:52 PM 77.0 °F - 71.6 °F 83% 29.89 in 1.0 mi South 5.8 mph - N/A Rain Heavy Rain
12:53 PM 75.2 °F - 71.6 °F 89% 29.89 in 1.2 mi SSW 4.6 mph - N/A Rain Heavy Rain
12:55 PM 75.7 °F - 71.1 °F 85% 29.89 in 1.5 mi SSW 4.6 mph - 0.23 in Rain Heavy Rain
1:11 PM 75.2 °F - 71.6 °F 89% 29.89 in 2.5 mi Calm Calm - N/A Rain Light Rain
1:12 PM 75.2 °F - 71.6 °F 89% 29.89 in 3.0 mi Calm Calm - N/A Rain Light Rain
1:34 PM 77.0 °F - 71.6 °F 83% 29.88 in 10.0 mi Calm Calm - N/A   Partly Cloudy
1:55 PM 77.7 °F - 71.8 °F 82% 29.87 in 10.0 mi Calm Calm - 0.06 in   Scattered Clouds
2:41 PM 80.6 °F 84.6 °F 71.6 °F 74% 29.86 in 10.0 mi Variable 5.8 mph - N/A   Mostly Cloudy
2:44 PM 80.6 °F 84.6 °F 71.6 °F 74% 29.86 in 10.0 mi Variable 4.6 mph - N/A   Scattered Clouds
2:55 PM 80.1 °F 83.7 °F 71.6 °F 75% 29.86 in 10.0 mi Variable 5.8 mph - N/A   Scattered Clouds
3:28 PM 80.6 °F 83.9 °F 69.8 °F 70% 29.86 in 10.0 mi South 6.9 mph - N/A   Mostly Cloudy
3:52 PM 82.4 °F 86.3 °F 69.8 °F 66% 29.86 in 10.0 mi SE 8.1 mph - N/A   Scattered Clouds
3:55 PM 81.3 °F 84.8 °F 70.0 °F 68% 29.86 in 10.0 mi SE 6.9 mph - N/A   Scattered Clouds
4:53 PM 78.8 °F - 69.8 °F 74% 29.88 in 10.0 mi Variable 5.8 mph - N/A   Mostly Cloudy
4:55 PM 78.1 °F - 70.7 °F 78% 29.88 in 10.0 mi SSE 6.9 mph - N/A   Mostly Cloudy
5:45 PM 75.2 °F - 71.6 °F 89% 29.90 in 10.0 mi SSE 5.8 mph - N/A   Mostly Cloudy
5:47 PM 75.2 °F - 71.6 °F 89% 29.91 in 10.0 mi SSE 3.5 mph - N/A   Mostly Cloudy
5:48 PM 75.2 °F - 71.6 °F 89% 29.91 in 10.0 mi SE 3.5 mph - N/A   Mostly Cloudy
5:55 PM 75.9 °F - 71.2 °F 85% 29.91 in 10.0 mi SSE 3.5 mph - N/A   Mostly Cloudy
6:01 PM 75.2 °F - 71.6 °F 89% 29.91 in 10.0 mi South 4.6 mph - N/A   Mostly Cloudy
6:20 PM 75.2 °F - 71.6 °F 89% 29.92 in 10.0 mi Calm Calm - N/A   Mostly Cloudy
6:29 PM 75.2 °F - 71.6 °F 89% 29.92 in 10.0 mi Calm Calm - N/A   Overcast
6:35 PM 75.2 °F - 71.6 °F 89% 29.93 in 10.0 mi Variable 3.5 mph - N/A   Overcast
6:51 PM 75.2 °F - 71.6 °F 89% 29.94 in 10.0 mi Calm Calm - N/A   Overcast
6:55 PM 75.2 °F - 71.2 °F 87% 29.94 in 10.0 mi Calm Calm - N/A   Overcast
7:03 PM 75.2 °F - 71.6 °F 89% 29.94 in 10.0 mi SSE 3.5 mph - N/A   Overcast
7:13 PM 75.2 °F - 71.6 °F 89% 29.95 in 10.0 mi South 3.5 mph - N/A   Overcast
7:55 PM 75.0 °F - 71.2 °F 88% 29.96 in 10.0 mi Calm Calm - N/A   Overcast
8:03 PM 75.2 °F - 71.6 °F 89% 29.97 in 5.0 mi SE 6.9 mph - N/A Rain Heavy Rain
8:09 PM 75.2 °F - 71.6 °F 89% 29.97 in 2.5 mi ESE 3.5 mph - N/A Rain Rain
8:55 PM 74.1 °F - 71.8 °F 92% 29.98 in 10.0 mi SE 3.5 mph - 0.18 in   Overcast
9:22 PM 73.4 °F - 71.6 °F 94% 29.97 in 10.0 mi SE 4.6 mph - N/A   Scattered Clouds
9:32 PM 73.4 °F - 71.6 °F 94% 29.97 in 10.0 mi ESE 3.5 mph - N/A   Mostly Cloudy
9:51 PM 73.4 °F - 71.6 °F 94% 29.98 in 10.0 mi Calm Calm - N/A   Scattered Clouds
9:53 PM 73.4 °F - 71.6 °F 94% 29.98 in 10.0 mi Calm Calm - N/A   Mostly Cloudy
9:55 PM 73.6 °F - 71.8 °F 94% 29.98 in 10.0 mi Calm Calm - N/A   Mostly Cloudy
9:58 PM 73.4 °F - 71.6 °F 94% 29.98 in 10.0 mi Calm Calm - N/A   Mostly Cloudy
10:51 PM 73.4 °F - 71.6 °F 94% 29.97 in 10.0 mi Calm Calm - N/A   Mostly Cloudy
10:52 PM 73.4 °F - 71.6 °F 94% 29.97 in 10.0 mi Calm Calm - N/A   Mostly Cloudy
10:54 PM 73.4 °F - 71.6 °F 94% 29.97 in 10.0 mi Calm Calm - N/A   Mostly Cloudy
10:55 PM 73.0 °F - 71.4 °F 95% 29.97 in 10.0 mi Calm Calm - N/A   Mostly Cloudy
11:11 PM 73.4 °F - 71.6 °F 94% 29.97 in 9.0 mi Calm Calm - N/A   Overcast
11:20 PM 73.4 °F - 71.6 °F 94% 29.97 in 10.0 mi Calm Calm - N/A   Mostly Cloudy
11:24 PM 73.4 °F - 71.6 °F 94% 29.97 in 9.0 mi Calm Calm - N/A   Mostly Cloudy
11:27 PM 73.4 °F - 71.6 °F 94% 29.97 in 9.0 mi Calm Calm - N/A   Mostly Cloudy
11:28 PM 73.4 °F - 71.6 °F 94% 29.97 in 9.0 mi Calm Calm - N/A   Mostly Cloudy
11:36 PM 73.4 °F - 71.6 °F 94% 29.97 in 10.0 mi Calm Calm - N/A   Mostly Cloudy
11:39 PM 73.4 °F - 71.6 °F 94% 29.97 in 10.0 mi Calm Calm - N/A   Mostly Cloudy
11:40 PM 73.4 °F - 71.6 °F 94% 29.97 in 10.0 mi Calm Calm - N/A   Mostly Cloudy
11:41 PM 73.4 °F - 71.6 °F 94% 29.97 in 10.0 mi Calm Calm - N/A   Overcast
11:42 PM 73.4 °F - 71.6 °F 94% 29.97 in 10.0 mi Calm Calm - N/A   Overcast
11:55 PM 72.5 °F - 71.1 °F 95% 29.97 in 10.0 mi Calm Calm - N/A   Overcast